Temperature
19 19 19 19 19 19 19 19 19 19 19 19 19 19 19 19 19 19 18 18 19 19 18 18 18 18 18 18 18 18 18 18 18 18 18 18 18 18 18 18 18 18 18
19 19 19 19 19 19 19 19 19 19 19 19 19 19 19 19 18 18 18 18 19 19 18 18 18 18 18 18 18 18 18 18 18 18 18 18 18 18 18 18 18 18 18
19 19 19 19 19 19 19 19 19 19 19 19 19 19 19 19 19 18 18 18 18 18 18 18 18 18 18 18 18 18 18 18 18 18 18 18 18 18 18 18 18 18 18
20 19 19 19 19 19 19 19 19 19 19 19 19 19 19 18 18 19 19 19 18 18 18 18 18 18 18 18 18 18 18 18 18 18 18 18 18 18 18 18 18 18 18
20 20 19 19 19 19 19 19 19 19 19 19 19 19 19 19 19 19 19 18 18 18 18 18 18 18 18 18 18 18 18 18 18 18 18 18 18 18 18 18 18 18 18
20 20 19 19 19 19 19 19 19 19 19 19 19 19 19 19 19 19 19 18 18 18 18 18 18 18 18 18 18 18 17 17 18 17 18 18 18 18 18 18 18 18 18
20 20 19 19 19 19 19 19 19 19 19 19 19 18 19 18 18 18 18 18 18 18 18 18 18 18 18 18 18 17 17 17 17 17 17 18 18 18 18 18 18 18 18
20 20 19 19 19 19 19 19 19 19 19 19 19 19 19 18 18 18 18 18 18 18 18 18 18 18 18 18 18 18 17 17 17 17 17 18 18 18 18 18 18 18 18
20 20 19 19 19 19 19 19 19 19 19 19 19 18 18 18 18 18 18 18 18 18 18 18 18 18 18 18 18 18 17 17 18 18 18 18 18 18 18 18 18 18 18
20 19 19 19 19 19 19 19 19 19 19 19 19 18 18 18 18 18 18 18 18 18 18 18 18 18 18 18 18 18 18 18 18 18 18 18 18 18 18 18 18 17 17
19 19 19 19 19 19 19 19 19 19 19 19 19 18 18 18 18 18 18 18 18 18 18 18 18 18 18 18 18 18 18 18 18 18 18 18 18 18 18 18 18 17 17
19 19 19 19 19 19 19 19 19 19 19 19 19 19 18 18 18 18 18 18 18 18 18 18 18 18 18 18 18 18 18 18 18 18 18 18 18 18 18 18 18 18 17
19 19 19 19 19 19 19 19 19 19 19 18 18 18 18 18 18 18 18 18 18 18 18 18 18 18 18 18 18 18 18 18 18 18 18 18 18 18 18 18 18 18 17
19 19 19 19 19 19 19 19 19 19 19 18 18 18 18 18 18 18 18 18 18 18 18 18 18 18 18 18 18 18 18 18 18 18 18 18 18 18 18 18 18 18 17
20 19 19 19 19 19 19 19 19 19 19 18 18 18 18 18 18 18 18 18 18 18 18 18 18 18 18 18 18 18 18 18 18 18 18 18 18 18 18 18 18 17 17
20 20 19 19 19 19 19 19 19 19 19 18 18 18 18 18 18 18 18 18 18 18 18 18 18 18 18 18 18 18 18 18 18 18 18 18 18 17 17 17 17 17 17
20 20 20 20 19 19 19 19 19 19 19 18 18 18 18 18 18 18 18 18 18 18 18 18 18 18 18 18 18 18 18 18 18 18 18 18 17 17 17 17 17 17 17
20 20 20 20 19 19 19 19 19 19 19 18 18 18 18 18 18 18 18 18 18 18 18 18 18 18 18 18 18 18 18 18 18 17 17 17 17 17 17 17 17 17 17
21 20 20 20 20 19 19 19 19 19 19 19 18 18 18 18 18 18 18 18 18 18 18 18 18 18 18 18 18 18 17 17 17 17 17 17 17 17 17 17 17 17 17
21 21 20 20 20 19 19 19 19 19 19 19 19 18 18 18 18 18 18 18 18 18 18 18 18 18 18 18 17 17 17 18 18 17 17 17 17 17 17 17 17 17 17
21 21 20 20 20 20 19 19 19 19 19 19 19 19 18 18 18 18 18 18 18 18 18 18 18 18 17 17 17 17 17 17 18 17 17 17 17 17 17 17 17 17 17
21 21 20 20 20 20 19 19 19 19 19 19 19 19 18 18 18 18 18 18 18 18 18 18 18 18 18 17 17 17 17 17 17 17 17 17 17 17 17 17 17 17 17
21 21 21 20 20 20 20 19 19 19 19 19 18 18 18 18 18 18 18 18 18 18 18 18 18 18 18 18 17 17 17 17 17 17 17 17 17 17 17 17 17 17 17
21 21 21 20 20 20 20 19 19 19 19 19 19 18 18 18 18 18 18 18 18 18 18 18 18 18 17 17 17 17 17 17 17 17 17 17 17 17 17 17 17 17 17
21 21 21 20 20 20 20 19 19 19 19 19 19 18 18 18 18 18 18 18 18 18 18 18 18 17 17 17 17 17 17 17 17 17 17 17 17 17 17 17 17 17 16
21 21 21 21 20 20 20 19 19 19 19 19 19 18 18 18 18 18 18 18 18 18 18 18 18 17 17 17 17 17 17 17 17 17 17 17 17 17 17 16 16 16 16
Wind_Speed
2 3 10 12 12 13 14 15 16 17 17 18 18 18 18 18 18 18 18 18 18 17 17 16 15 15 16 17 18 18 18 18 18 17 17 16 16 16 16 16 16 15 17
6 7 11 12 13 14 15 16 16 17 17 17 17 18 17 17 17 17 17 16 16 16 16 15 15 15 15 16 17 18 17 18 17 17 16 15 15 15 16 15 15 14 17
8 8 11 12 13 14 16 16 16 16 17 16 16 16 16 16 16 16 16 16 16 15 15 15 14 14 15 16 16 17 17 17 16 16 15 12 13 14 15 15 15 16 16
10 9 11 13 14 15 15 15 15 15 15 15 15 15 15 15 15 15 15 15 15 14 14 13 13 14 14 14 15 15 15 15 15 14 11 10 11 14 14 15 15 15 15
8 9 12 14 14 15 15 15 15 15 14 14 14 14 14 14 14 14 14 14 13 13 13 12 12 12 13 13 14 13 13 13 13 11 10 10 11 13 14 15 15 15 15
8 9 13 15 14 14 14 14 14 14 14 14 14 14 13 14 13 13 13 13 12 12 11 11 11 11 11 12 12 12 12 12 10 9 10 11 11 13 14 15 15 15 15
8 8 12 15 14 14 13 13 13 13 13 14 13 13 13 13 13 13 12 12 11 11 10 10 9 9 10 10 10 10 10 9 9 10 9 11 12 14 14 14 14 15 14
10 8 10 13 14 13 13 13 13 13 13 13 13 13 12 12 12 12 12 11 11 10 9 8 8 8 8 9 9 9 8 8 9 10 10 11 13 14 14 13 14 14 14
10 8 6 9 11 12 12 12 12 12 12 12 12 12 12 11 11 11 10 10 9 9 8 7 7 7 6 7 8 8 8 8 7 9 11 10 14 14 14 14 14 14 14
8 7 5 6 7 7 9 11 11 11 11 11 11 11 11 10 9 9 9 9 9 8 7 6 6 6 5 6 8 8 7 7 7 9 9 11 14 15 15 14 14 14 14
8 5 5 5 6 6 7 9 10 11 11 10 10 10 9 7 7 7 8 8 8 8 7 6 5 5 4 5 6 6 4 3 5 7 9 12 15 16 15 15 14 14 14
7 5 4 4 5 6 6 7 7 8 8 8 7 8 8 7 6 6 7 7 8 7 6 5 4 4 2 2 3 3 2 3 4 6 9 14 15 15 15 14 15 15 14
7 7 5 4 4 4 3 6 5 5 6 6 7 8 7 6 5 5 4 5 5 6 4 4 4 3 2 2 2 2 3 3 4 7 10 15 15 14 14 14 15 15 14
7 6 6 4 3 3 4 4 5 5 4 5 7 8 6 3 3 3 3 4 4 4 4 3 2 3 2 3 3 3 4 4 5 7 10 15 16 15 14 15 15 15 15
7 6 5 5 4 3 3 3 4 5 5 6 7 7 7 4 3 3 3 4 4 4 4 3 3 2 2 2 3 4 4 4 6 7 9 14 16 15 15 15 15 15 15
7 6 5 5 5 4 3 3 4 4 5 6 6 6 7 5 4 3 2 2 3 5 5 4 3 3 2 2 3 4 4 4 5 7 7 10 14 15 15 15 15 14 14
8 6 6 6 5 4 4 3 4 4 5 4 5 6 6 6 5 3 2 2 2 4 4 3 3 2 2 2 2 3 3 4 5 6 7 7 9 12 14 14 14 14 14
8 7 6 6 5 4 3 3 3 4 5 4 4 5 6 6 6 4 2 2 3 3 3 2 2 1 1 1 2 2 2 2 4 5 6 7 7 8 11 13 14 14 14
9 8 6 5 5 4 3 3 3 4 4 4 4 4 5 5 6 5 2 1 3 2 2 2 2 2 2 2 2 1 2 2 3 4 4 6 7 7 7 8 11 13 13
9 8 7 6 5 4 3 3 2 3 2 3 3 4 5 5 6 4 3 2 2 2 1 1 2 1 2 2 1 1 1 2 2 3 4 4 6 7 7 6 6 7 10
8 8 7 6 5 4 3 2 2 1 1 2 2 4 5 5 5 4 2 2 2 2 2 2 2 1 1 1 2 1 2 1 2 2 2 2 3 5 6 7 7 6 6
10 8 7 7 6 5 3 3 2 2 1 2 1 3 5 5 5 5 3 3 3 2 2 2 2 2 1 2 2 1 1 2 2 2 2 2 3 3 4 6 7 7 7
10 9 9 7 6 6 4 3 2 2 2 1 1 1 2 4 4 4 4 3 3 3 2 2 2 3 2 1 2 3 2 3 1 2 2 2 2 2 2 3 5 7 7
11 9 8 7 6 5 5 4 4 3 2 3 2 2 2 2 3 4 4 4 3 3 2 2 2 2 3 1 1 1 2 3 2 1 2 1 1 2 2 2 3 5 6
11 10 9 7 6 5 4 4 4 3 3 2 1 2 2 1 2 3 4 3 3 2 2 2 2 2 2 2 2 1 1 0 1 2 1 1 1 1 2 2 3 3 4
10 10 9 8 7 6 6 5 5 5 4 3 2 2 1 1 1 2 4 3 3 2 2 3 3 2 2 2 2 2 2 2 2 2 2 2 1 2 1 1 1 2 4
Wind_Direction
118 121 110 108 108 108 108 107 104 103 102 102 101 102 104 104 105 107 109 111 112 113 114 115 118 124 127 127 126 127 127 127 127 128 127 126 126 125 123 121 120 117 119
145 128 115 113 110 111 111 110 108 107 106 106 106 105 106 107 107 109 110 113 115 116 117 118 121 125 130 129 127 129 129 128 128 128 128 128 128 127 125 123 123 122 122
134 130 122 117 113 112 112 111 111 111 110 109 108 108 110 111 112 114 116 117 118 118 119 120 123 127 130 131 130 130 131 130 129 127 125 123 127 128 129 130 128 126 125
137 134 128 123 119 116 114 112 112 112 112 113 113 113 114 116 117 118 118 118 119 120 121 121 124 127 130 132 133 134 134 134 134 132 130 129 130 132 133 133 133 131 128
131 134 133 129 125 122 119 117 117 118 118 119 119 119 119 119 118 119 119 119 120 121 121 123 126 131 135 138 138 138 138 139 137 133 134 131 132 137 137 136 137 135 134
131 135 136 134 130 127 127 126 124 124 124 123 123 124 123 122 122 122 121 120 120 120 123 126 129 134 139 142 143 144 143 147 137 132 136 138 140 142 141 141 141 140 139
131 130 135 134 132 132 132 131 130 130 128 127 126 127 127 126 126 126 124 124 124 123 125 125 128 133 143 148 149 150 147 148 146 144 148 149 151 149 148 147 147 144 144
128 128 137 138 137 137 136 134 134 134 133 132 129 128 128 129 131 133 132 132 131 129 126 128 133 138 144 152 157 155 149 151 152 155 158 158 157 157 157 155 153 152 152
130 130 136 139 140 141 142 141 140 139 138 135 134 133 133 135 138 139 138 136 134 132 130 132 137 142 152 161 164 160 157 153 146 159 164 164 164 164 165 166 163 162 160
131 136 138 135 135 138 143 148 148 147 142 139 139 139 142 142 142 144 146 145 142 141 142 142 145 148 156 166 166 161 157 148 147 160 164 171 172 171 171 172 173 172 170
127 135 144 144 146 150 153 151 152 151 146 146 146 145 145 146 147 151 154 156 154 155 156 157 157 156 156 166 164 160 159 146 149 165 169 179 177 175 177 179 181 180 177
146 152 155 154 159 166 158 153 160 160 157 156 156 156 156 156 160 161 166 171 169 169 171 172 173 173 171 160 160 159 164 157 159 171 180 182 179 179 181 184 186 186 185
158 157 163 161 162 167 160 167 177 170 167 169 166 164 161 162 168 163 168 180 183 187 194 200 200 205 188 182 189 191 185 178 180 182 186 183 183 185 184 187 187 188 190
142 147 158 155 149 156 156 172 182 172 174 177 176 169 163 164 168 169 176 186 188 195 197 210 212 211 205 211 211 198 195 189 177 182 185 185 185 187 188 190 192 194 196
139 140 141 136 132 129 131 166 165 167 167 163 165 167 164 159 166 166 175 182 191 194 195 204 199 200 191 207 198 179 180 190 184 178 186 189 189 193 195 196 198 200 203
145 143 141 133 129 120 113 112 135 155 159 155 164 170 163 160 156 149 160 170 185 194 199 203 197 187 188 183 182 179 181 193 191 186 184 192 197 200 202 204 204 206 209
152 148 148 146 134 122 117 118 122 142 149 152 166 168 164 163 162 155 154 169 192 192 181 179 185 178 168 159 173 184 182 191 188 188 185 190 203 211 211 211 210 211 211
151 150 155 151 139 136 137 129 118 128 133 142 156 160 164 165 159 151 146 178 186 168 149 148 154 146 153 157 181 197 191 187 191 186 186 193 205 216 219 220 217 215 214
157 155 154 146 147 151 148 130 122 117 130 146 152 153 161 161 157 146 144 161 157 133 145 173 156 161 176 190 194 191 190 191 208 202 191 197 202 210 214 222 223 220 219
158 154 153 153 156 148 130 107 97 99 122 147 156 161 158 158 154 146 138 137 131 121 138 154 153 167 177 186 187 187 221 214 210 211 212 205 204 205 204 207 214 226 224
157 156 157 156 163 146 133 133 130 142 158 163 176 170 164 161 156 147 142 142 133 137 161 153 142 148 176 142 100 18 337 302 235 226 219 194 195 203 202 202 202 208 220
168 166 164 165 166 166 165 163 162 159 181 179 181 167 169 165 166 161 152 159 154 144 141 133 134 140 183 159 147 127 2 332 312 257 233 201 198 187 193 201 198 203 208
173 173 174 174 170 170 161 132 110 78 63 67 129 183 186 169 170 162 162 158 155 148 160 168 153 150 177 226 169 160 164 223 272 308 256 228 206 196 210 194 197 203 205
177 171 166 171 170 168 152 141 149 156 177 204 192 191 203 176 169 164 159 155 157 158 172 191 174 163 156 204 260 208 186 170 171 269 317 283 221 214 224 218 197 199 203
172 169 170 167 167 164 157 163 167 176 192 190 164 163 183 194 176 165 157 154 161 168 180 183 169 161 165 181 195 208 205 154 161 167 247 297 319 261 222 214 194 182 190
172 170 169 168 170 165 165 173 181 184 175 160 157 163 183 193 186 166 166 168 176 180 184 185 188 181 186 183 187 183 171 175 196 174 197 223 244 276 265 244 197 185 193
Height
1514 1513 1512 1512 1511 1510 1510 1510 1510 1511 1511 1512 1512 1513 1514 1514 1515 1515 1516 1518 1519 1520 1521 1522 1523 1525 1527 1529 1531 1533 1535 1537 1539 1540 1542 1543 1544 1545 1547 1548 1549 1550 1551
1514 1514 1514 1513 1512 1512 1512 1512 1512 1513 1514 1514 1515 1516 1516 1517 1518 1518 1519 1520 1521 1523 1523 1524 1525 1526 1528 1530 1532 1535 1537 1539 1540 1542 1543 1545 1546 1547 1548 1549 1550 1551 1552
1514 1515 1515 1515 1514 1514 1514 1514 1515 1516 1516 1517 1517 1518 1519 1519 1520 1521 1522 1522 1523 1525 1525 1526 1527 1528 1530 1532 1534 1536 1538 1540 1542 1543 1545 1546 1547 1548 1549 1550 1552 1552 1554
1515 1516 1516 1516 1516 1516 1516 1516 1517 1518 1518 1519 1520 1520 1521 1522 1522 1523 1524 1525 1526 1527 1528 1529 1529 1530 1531 1533 1536 1538 1540 1542 1543 1545 1546 1547 1548 1549 1550 1551 1552 1553 1555
1516 1517 1517 1517 1518 1518 1518 1519 1519 1520 1520 1521 1522 1522 1523 1524 1524 1525 1526 1527 1528 1529 1530 1531 1531 1532 1534 1535 1537 1539 1541 1543 1545 1546 1547 1549 1549 1550 1551 1551 1553 1554 1556
1517 1518 1518 1519 1519 1520 1520 1521 1521 1522 1522 1523 1524 1524 1525 1525 1526 1527 1528 1529 1530 1531 1531 1532 1533 1534 1536 1537 1539 1540 1542 1544 1545 1547 1548 1550 1551 1551 1552 1553 1554 1556 1557
1519 1519 1520 1521 1521 1521 1522 1522 1523 1523 1524 1524 1525 1526 1526 1527 1528 1529 1529 1530 1531 1532 1533 1534 1535 1536 1537 1538 1540 1541 1543 1545 1546 1548 1549 1550 1552 1553 1553 1554 1555 1557 1558
1520 1521 1521 1522 1522 1523 1523 1524 1524 1525 1525 1526 1527 1527 1528 1529 1530 1530 1531 1532 1533 1534 1534 1535 1535 1536 1537 1539 1540 1542 1544 1545 1547 1548 1550 1551 1552 1553 1554 1555 1556 1557 1559
1522 1522 1523 1523 1524 1524 1524 1525 1525 1526 1526 1527 1528 1528 1529 1530 1531 1532 1532 1533 1534 1534 1535 1535 1536 1536 1537 1538 1540 1542 1544 1546 1548 1549 1550 1552 1553 1554 1555 1556 1557 1558 1559
1523 1524 1524 1524 1525 1525 1525 1526 1526 1527 1527 1528 1529 1530 1530 1531 1532 1532 1533 1534 1534 1535 1535 1536 1536 1536 1536 1536 1539 1542 1545 1547 1548 1549 1551 1552 1553 1554 1555 1557 1557 1558 1559
1525 1525 1525 1525 1526 1526 1526 1526 1527 1527 1528 1529 1530 1531 1531 1532 1533 1533 1534 1535 1535 1536 1536 1537 1537 1536 1535 1535 1538 1542 1545 1547 1548 1550 1551 1552 1553 1554 1555 1556 1557 1558 1559
1526 1526 1527 1526 1526 1526 1526 1526 1527 1528 1529 1530 1531 1531 1532 1533 1534 1534 1535 1535 1536 1537 1537 1537 1538 1538 1537 1538 1540 1543 1545 1547 1549 1550 1551 1553 1553 1554 1555 1555 1556 1558 1558
1526 1527 1527 1527 1527 1527 1526 1526 1526 1527 1529 1530 1531 1532 1533 1533 1534 1535 1535 1536 1537 1537 1538 1538 1539 1540 1540 1541 1542 1543 1545 1547 1549 1550 1551 1552 1553 1554 1554 1555 1555 1557 1558
1527 1527 1528 1528 1528 1527 1526 1525 1525 1527 1529 1531 1532 1533 1533 1534 1535 1535 1536 1537 1537 1538 1539 1539 1540 1541 1542 1543 1543 1544 1546 1547 1549 1549 1551 1552 1553 1553 1554 1554 1555 1556 1557
1527 1528 1528 1529 1529 1528 1527 1526 1526 1528 1530 1532 1533 1534 1534 1535 1535 1536 1536 1537 1538 1539 1539 1540 1541 1541 1542 1543 1544 1545 1546 1547 1548 1549 1550 1551 1552 1553 1553 1554 1555 1555 1556
1528 1529 1529 1530 1530 1530 1529 1529 1529 1530 1532 1533 1534 1535 1535 1536 1536 1536 1537 1537 1538 1539 1540 1540 1541 1542 1542 1543 1544 1545 1545 1546 1548 1549 1549 1550 1551 1552 1553 1553 1553 1554 1554
1528 1529 1530 1530 1531 1531 1531 1532 1532 1532 1533 1534 1535 1535 1536 1536 1537 1537 1537 1538 1539 1539 1540 1540 1541 1542 1543 1543 1544 1544 1545 1546 1547 1548 1548 1549 1550 1551 1551 1552 1552 1552 1553
1528 1529 1530 1531 1532 1532 1533 1533 1534 1534 1535 1535 1535 1536 1536 1537 1537 1537 1537 1538 1539 1539 1540 1540 1541 1542 1542 1543 1543 1544 1544 1545 1546 1547 1547 1548 1548 1549 1550 1550 1550 1550 1550
1528 1530 1530 1531 1532 1533 1533 1534 1535 1535 1535 1536 1536 1537 1537 1537 1537 1538 1538 1538 1539 1539 1540 1540 1541 1541 1542 1543 1543 1543 1544 1544 1545 1545 1546 1546 1547 1547 1548 1548 1548 1548 1549
1528 1529 1530 1532 1532 1533 1534 1535 1535 1536 1536 1536 1536 1537 1537 1538 1538 1538 1538 1538 1539 1539 1539 1540 1540 1541 1542 1542 1542 1542 1543 1543 1543 1544 1544 1545 1545 1546 1546 1546 1546 1546 1546
1528 1529 1530 1531 1532 1533 1534 1534 1535 1536 1536 1536 1536 1537 1537 1537 1537 1537 1538 1538 1538 1538 1539 1539 1540 1540 1541 1541 1542 1542 1542 1542 1543 1543 1543 1544 1544 1544 1544 1544 1544 1544 1544
1527 1528 1529 1530 1531 1533 1533 1534 1535 1536 1536 1536 1536 1537 1537 1537 1537 1537 1537 1537 1538 1538 1538 1539 1539 1539 1540 1540 1541 1541 1541 1542 1541 1541 1542 1542 1542 1542 1542 1543 1543 1543 1543
1525 1527 1528 1530 1531 1532 1533 1534 1535 1535 1535 1536 1536 1536 1536 1536 1537 1537 1537 1537 1537 1537 1537 1538 1538 1538 1539 1539 1540 1540 1540 1540 1540 1540 1540 1540 1541 1541 1541 1541 1541 1541 1541
1524 1526 1527 1529 1530 1531 1532 1533 1533 1534 1534 1534 1535 1535 1535 1536 1536 1536 1536 1536 1536 1536 1536 1537 1537 1537 1537 1538 1538 1539 1539 1539 1539 1539 1539 1539 1539 1539 1539 1539 1539 1539 1539
1522 1524 1526 1527 1529 1530 1531 1532 1533 1533 1533 1534 1534 1534 1534 1535 1535 1535 1535 1535 1535 1535 1535 1535 1536 1536 1536 1536 1537 1537 1537 1537 1537 1538 1537 1537 1538 1537 1537 1537 1537 1537 1537
1520 1522 1524 1525 1527 1528 1529 1530 1531 1532 1532 1532 1532 1533 1533 1533 1533 1533 1534 1534 1534 1534 1534 1534 1534 1534 1534 1535 1535 1535 1535 1536 1536 1536 1536 1535 1535 1536 1535 1535 1535 1535 1535